カタログに戻る

DEB SIMORGH

LostLEO
NORAD 65790·DEBRIS·🇮🇷 Iran
この衛星名は、まだ公式ソースで確認されていません。

打ち上げ Jan 28, 2024 から Semnan Space Center

Loading…

次のパス (今後24時間)

TLE

古いSource: Space-Track

元期: Aug 1, 2026, 03:07 UTC

1 65790U 24018F   26213.13042152  .00003744  00000-0  37647-3 0  9992
2 65790  58.3062   5.6380 0376105 261.5893  94.2344 14.52626758 41705

AllMySatでDEB SIMORGHをリアルタイム追跡

Download on the App Store